S.y Nikata — MNVV3 — position and weather

sailwx.info

Track history (hours):
 
Tides and Currents Weather Stations Pressure Air Temp Water Temp Dewpoint Dewpoint Depression Visibility Wind Speed Wind Dir Waves Ship Positions

S.y Nikata

Last reported at 2014-Oct-23 09:32 UTC. Time now 2014-Oct-25 10:20 UTC.
Position N 44°04' E 009°42'.

Length 24 m.

Type: Sailing vessel. MMSI: 235038688.

Date/timePositionNaut miles runAvg speedWind from/ knotsBaromVisibWave heightAir tempDewpointWater temp
2014-Oct-23 09:32N 44°04' E 009°42'6 6.6
2014-Oct-23 08:33N 44°01' E 009°50'4 4.0
2014-Oct-23 07:31N 44°05' E 009°51'2 2.1
2014-Oct-23 06:31N 44°03' E 009°51'0 0.0
2014-Oct-23 05:25N 44°03' E 009°51'0 0.0
2014-Oct-23 04:31N 44°03' E 009°51'0 0.0
2014-Oct-23 03:31N 44°03' E 009°51'0 0.0
2014-Oct-23 02:16N 44°03' E 009°51'0 0.0
2014-Oct-23 01:22N 44°03' E 009°51'0 0.0
2014-Oct-23 00:31N 44°03' E 009°51'0 0.0
2014-Oct-22 23:31N 44°03' E 009°51'0 0.0
2014-Oct-22 22:31N 44°03' E 009°51'0 0.0
2014-Oct-22 21:31N 44°03' E 009°51'0 0.0
2014-Oct-22 20:31N 44°03' E 009°51'0 0.0
2014-Oct-22 19:31N 44°03' E 009°51'0 0.0
2014-Oct-22 18:31N 44°03' E 009°51'0 0.0
2014-Oct-22 17:31N 44°03' E 009°51'0 0.0
2014-Oct-22 16:31N 44°03' E 009°51'0 0.0
2014-Oct-22 15:28N 44°03' E 009°51'0 0.0
2014-Oct-22 14:31N 44°03' E 009°51'0 0.0
2014-Oct-22 13:31N 44°03' E 009°51'0 0.0
2014-Oct-22 12:28N 44°03' E 009°51'0 0.0
2014-Oct-22 11:20N 44°03' E 009°51'0 0.0
2014-Oct-22 10:17N 44°03' E 009°51'0 0.2
2014-Oct-22 09:32N 44°03' E 009°51'0 0.0
2014-Oct-22 08:23N 44°03' E 009°51'0 0.0
2014-Oct-22 07:23N 44°03' E 009°51'0 0.0
2014-Oct-22 06:08N 44°03' E 009°51'0 0.0
2014-Oct-22 05:29N 44°03' E 009°51'0 0.0
2014-Oct-22 04:26N 44°03' E 009°51'0 0.0
2014-Oct-22 03:14N 44°03' E 009°51'0 0.0
2014-Oct-22 02:32N 44°03' E 009°51'0 0.0
2014-Oct-22 01:26N 44°03' E 009°51'0 0.0
2014-Oct-22 00:11N 44°03' E 009°51'0 0.0
2014-Oct-21 23:14N 44°03' E 009°51'0 0.0
2014-Oct-21 22:32N 44°03' E 009°51'0 0.0
2014-Oct-21 21:29N 44°03' E 009°51'0 0.0
2014-Oct-21 20:32N 44°03' E 009°51'0 0.0
2014-Oct-21 19:23N 44°03' E 009°51'0 0.0
2014-Oct-21 18:32N 44°03' E 009°51'0 0.0
2014-Oct-21 17:29N 44°03' E 009°51'0 0.0
2014-Oct-21 16:32N 44°03' E 009°51'0 0.0
2014-Oct-21 15:17N 44°03' E 009°51'  
2014-Oct-17 04:33N 43°56' E 009°15'399 8.7
2014-Oct-15 06:32N 39°25' E 002°42'9 8.8
2014-Oct-15 05:34N 39°33' E 002°38'1 0.5
2014-Oct-15 04:32N 39°34' E 002°38'0 0.0
2014-Oct-15 03:32N 39°34' E 002°38'0 0.0
2014-Oct-15 02:32N 39°34' E 002°38'0 0.0
2014-Oct-15 01:32N 39°34' E 002°38'0 0.0
2014-Oct-15 00:32N 39°34' E 002°38'0 0.0
2014-Oct-14 23:32N 39°34' E 002°38'0 0.0
2014-Oct-14 22:32N 39°34' E 002°38'0 0.0
2014-Oct-14 21:32N 39°34' E 002°38'0 0.0
2014-Oct-14 20:32N 39°34' E 002°38'0 0.0
2014-Oct-14 19:32N 39°34' E 002°38'0 0.0
2014-Oct-14 18:29N 39°34' E 002°38'0 0.0
2014-Oct-14 17:32N 39°34' E 002°38'0 0.0
2014-Oct-14 16:29N 39°34' E 002°38'0 0.0
2014-Oct-14 15:29N 39°34' E 002°38'0 0.0
2014-Oct-14 14:32N 39°34' E 002°38'0 0.1
2014-Oct-14 13:32N 39°34' E 002°38'0 0.1
2014-Oct-14 12:31N 39°34' E 002°38'0 0.0
2014-Oct-14 11:31N 39°34' E 002°38'0 0.0
2014-Oct-14 10:31N 39°34' E 002°38'0 0.0
2014-Oct-14 09:31N 39°34' E 002°38'0 0.0
2014-Oct-14 08:31N 39°34' E 002°38'0 0.0
2014-Oct-14 07:31N 39°34' E 002°38'0 0.0
2014-Oct-14 06:31N 39°34' E 002°38'0 0.0
2014-Oct-14 05:31N 39°34' E 002°38'0 0.0
2014-Oct-14 04:31N 39°34' E 002°38'0 0.0
2014-Oct-14 03:31N 39°34' E 002°38'0 0.0
2014-Oct-14 02:31N 39°34' E 002°38'0 0.0
2014-Oct-14 01:31N 39°34' E 002°38'0 0.0
2014-Oct-14 00:31N 39°34' E 002°38'0 0.0
2014-Oct-13 23:31N 39°34' E 002°38'0 0.0
2014-Oct-13 22:31N 39°34' E 002°38'0 0.0
2014-Oct-13 21:31N 39°34' E 002°38'0 0.0
2014-Oct-13 20:31N 39°34' E 002°38'0 0.0
2014-Oct-13 19:31N 39°34' E 002°38'0 0.0
2014-Oct-13 18:31N 39°34' E 002°38'0 0.0
2014-Oct-13 17:31N 39°34' E 002°38'0 0.0
2014-Oct-13 16:31N 39°34' E 002°38'0 0.0
2014-Oct-13 15:31N 39°34' E 002°38'0 0.0
2014-Oct-13 14:28N 39°34' E 002°38'0 0.0
2014-Oct-13 13:31N 39°34' E 002°38'0 0.0
2014-Oct-13 12:31N 39°34' E 002°38'0 0.0
2014-Oct-13 11:31N 39°34' E 002°38'0 0.0
2014-Oct-13 10:31N 39°34' E 002°38'  
Track history (hours):
 
Tides and Currents Weather Stations Pressure Air Temp Water Temp Dewpoint Dewpoint Depression Visibility Wind Speed Wind Dir Waves Ship Positions

S.y Nikata

Last reported at 2014-Oct-23 09:32 UTC. Time now 2014-Oct-25 10:20 UTC.
Position N 44°04' E 009°42'.

Length 24 m.

Type: Sailing vessel. MMSI: 235038688.

Date/timePositionNaut miles runAvg speedWind from/ knotsBaromVisibWave heightAir tempDewpointWater temp
2014-Oct-23 09:32N 44°04' E 009°42'6 6.6
2014-Oct-23 08:33N 44°01' E 009°50'4 4.0
2014-Oct-23 07:31N 44°05' E 009°51'2 2.1
2014-Oct-23 06:31N 44°03' E 009°51'0 0.0
2014-Oct-23 05:25N 44°03' E 009°51'0 0.0
2014-Oct-23 04:31N 44°03' E 009°51'0 0.0
2014-Oct-23 03:31N 44°03' E 009°51'0 0.0
2014-Oct-23 02:16N 44°03' E 009°51'0 0.0
2014-Oct-23 01:22N 44°03' E 009°51'0 0.0
2014-Oct-23 00:31N 44°03' E 009°51'0 0.0
2014-Oct-22 23:31N 44°03' E 009°51'0 0.0
2014-Oct-22 22:31N 44°03' E 009°51'0 0.0
2014-Oct-22 21:31N 44°03' E 009°51'0 0.0
2014-Oct-22 20:31N 44°03' E 009°51'0 0.0
2014-Oct-22 19:31N 44°03' E 009°51'0 0.0
2014-Oct-22 18:31N 44°03' E 009°51'0 0.0
2014-Oct-22 17:31N 44°03' E 009°51'0 0.0
2014-Oct-22 16:31N 44°03' E 009°51'0 0.0
2014-Oct-22 15:28N 44°03' E 009°51'0 0.0
2014-Oct-22 14:31N 44°03' E 009°51'0 0.0
2014-Oct-22 13:31N 44°03' E 009°51'0 0.0
2014-Oct-22 12:28N 44°03' E 009°51'0 0.0
2014-Oct-22 11:20N 44°03' E 009°51'0 0.0
2014-Oct-22 10:17N 44°03' E 009°51'0 0.2
2014-Oct-22 09:32N 44°03' E 009°51'0 0.0
2014-Oct-22 08:23N 44°03' E 009°51'0 0.0
2014-Oct-22 07:23N 44°03' E 009°51'0 0.0
2014-Oct-22 06:08N 44°03' E 009°51'0 0.0
2014-Oct-22 05:29N 44°03' E 009°51'0 0.0
2014-Oct-22 04:26N 44°03' E 009°51'0 0.0
2014-Oct-22 03:14N 44°03' E 009°51'0 0.0
2014-Oct-22 02:32N 44°03' E 009°51'0 0.0
2014-Oct-22 01:26N 44°03' E 009°51'0 0.0
2014-Oct-22 00:11N 44°03' E 009°51'0 0.0
2014-Oct-21 23:14N 44°03' E 009°51'0 0.0
2014-Oct-21 22:32N 44°03' E 009°51'0 0.0
2014-Oct-21 21:29N 44°03' E 009°51'0 0.0
2014-Oct-21 20:32N 44°03' E 009°51'0 0.0
2014-Oct-21 19:23N 44°03' E 009°51'0 0.0
2014-Oct-21 18:32N 44°03' E 009°51'0 0.0
2014-Oct-21 17:29N 44°03' E 009°51'0 0.0
2014-Oct-21 16:32N 44°03' E 009°51'0 0.0
2014-Oct-21 15:17N 44°03' E 009°51'  
2014-Oct-17 04:33N 43°56' E 009°15'399 8.7
2014-Oct-15 06:32N 39°25' E 002°42'9 8.8
2014-Oct-15 05:34N 39°33' E 002°38'1 0.5
2014-Oct-15 04:32N 39°34' E 002°38'0 0.0
2014-Oct-15 03:32N 39°34' E 002°38'0 0.0
2014-Oct-15 02:32N 39°34' E 002°38'0 0.0
2014-Oct-15 01:32N 39°34' E 002°38'0 0.0
2014-Oct-15 00:32N 39°34' E 002°38'0 0.0
2014-Oct-14 23:32N 39°34' E 002°38'0 0.0
2014-Oct-14 22:32N 39°34' E 002°38'0 0.0
2014-Oct-14 21:32N 39°34' E 002°38'0 0.0
2014-Oct-14 20:32N 39°34' E 002°38'0 0.0
2014-Oct-14 19:32N 39°34' E 002°38'0 0.0
2014-Oct-14 18:29N 39°34' E 002°38'0 0.0
2014-Oct-14 17:32N 39°34' E 002°38'0 0.0
2014-Oct-14 16:29N 39°34' E 002°38'0 0.0
2014-Oct-14 15:29N 39°34' E 002°38'0 0.0
2014-Oct-14 14:32N 39°34' E 002°38'0 0.1
2014-Oct-14 13:32N 39°34' E 002°38'0 0.1
2014-Oct-14 12:31N 39°34' E 002°38'0 0.0
2014-Oct-14 11:31N 39°34' E 002°38'0 0.0
2014-Oct-14 10:31N 39°34' E 002°38'0 0.0
2014-Oct-14 09:31N 39°34' E 002°38'0 0.0
2014-Oct-14 08:31N 39°34' E 002°38'0 0.0
2014-Oct-14 07:31N 39°34' E 002°38'0 0.0
2014-Oct-14 06:31N 39°34' E 002°38'0 0.0
2014-Oct-14 05:31N 39°34' E 002°38'0 0.0
2014-Oct-14 04:31N 39°34' E 002°38'0 0.0
2014-Oct-14 03:31N 39°34' E 002°38'0 0.0
2014-Oct-14 02:31N 39°34' E 002°38'0 0.0
2014-Oct-14 01:31N 39°34' E 002°38'0 0.0
2014-Oct-14 00:31N 39°34' E 002°38'0 0.0
2014-Oct-13 23:31N 39°34' E 002°38'0 0.0
2014-Oct-13 22:31N 39°34' E 002°38'0 0.0
2014-Oct-13 21:31N 39°34' E 002°38'0 0.0
2014-Oct-13 20:31N 39°34' E 002°38'0 0.0
2014-Oct-13 19:31N 39°34' E 002°38'0 0.0
2014-Oct-13 18:31N 39°34' E 002°38'0 0.0
2014-Oct-13 17:31N 39°34' E 002°38'0 0.0
2014-Oct-13 16:31N 39°34' E 002°38'0 0.0
2014-Oct-13 15:31N 39°34' E 002°38'0 0.0
2014-Oct-13 14:28N 39°34' E 002°38'0 0.0
2014-Oct-13 13:31N 39°34' E 002°38'0 0.0
2014-Oct-13 12:31N 39°34' E 002°38'0 0.0
2014-Oct-13 11:31N 39°34' E 002°38'0 0.0
2014-Oct-13 10:31N 39°34' E 002°38'  

Dump ship's entire track history